2 Carport Messungen

Zurück zum Überblick

Zeitpunkt Temperatur Luftfeuchte
28.05.2020 19:17:55 26,5 C 28,0%
28.05.2020 19:10:55 26,6 C 28,0%
28.05.2020 19:03:53 26,6 C 28,0%
28.05.2020 18:56:51 26,4 C 27,0%
28.05.2020 18:49:50 26,2 C 26,0%
28.05.2020 18:42:49 26,9 C 26,0%
28.05.2020 18:35:46 27,5 C 26,0%
28.05.2020 18:28:42 28,1 C 25,0%
28.05.2020 18:21:39 28,4 C 25,0%
28.05.2020 18:14:39 29,3 C 24,0%
28.05.2020 18:07:37 30,0 C 23,0%
28.05.2020 18:00:34 30,7 C 23,0%
28.05.2020 17:53:31 31,3 C 23,0%
28.05.2020 17:46:29 31,7 C 23,0%
28.05.2020 17:39:26 31,9 C 23,0%
28.05.2020 17:32:23 32,0 C 22,0%
28.05.2020 17:25:21 32,2 C 22,0%
28.05.2020 17:18:17 32,3 C 21,0%
28.05.2020 17:11:15 32,4 C 21,0%
28.05.2020 17:04:12 32,3 C 21,0%
28.05.2020 16:57:09 32,0 C 21,0%
28.05.2020 16:50:07 31,6 C 21,0%
28.05.2020 16:43:04 31,5 C 22,0%
28.05.2020 16:36:03 31,9 C 23,0%
28.05.2020 16:29:01 31,7 C 23,0%
28.05.2020 16:21:58 31,1 C 23,0%
28.05.2020 16:14:56 30,7 C 24,0%
28.05.2020 16:07:54 30,3 C 25,0%
28.05.2020 16:00:52 30,2 C 25,0%
28.05.2020 15:53:50 30,6 C 24,0%
28.05.2020 15:46:47 31,0 C 24,0%
28.05.2020 15:39:44 31,4 C 25,0%
28.05.2020 15:32:41 31,5 C 25,0%
28.05.2020 15:25:39 31,1 C 25,0%
28.05.2020 15:18:36 30,7 C 25,0%
28.05.2020 15:11:33 30,2 C 26,0%
28.05.2020 15:04:32 29,9 C 27,0%
28.05.2020 14:57:30 29,8 C 27,0%
28.05.2020 14:50:29 30,8 C 27,0%
28.05.2020 14:43:28 30,9 C 27,0%
28.05.2020 14:36:25 30,2 C 28,0%
28.05.2020 14:29:23 30,0 C 28,0%
28.05.2020 14:22:22 29,9 C 28,0%
28.05.2020 14:15:21 30,0 C 27,0%
28.05.2020 14:08:18 30,1 C 28,0%
28.05.2020 14:01:16 29,9 C 29,0%
28.05.2020 13:54:13 29,6 C 29,0%
28.05.2020 13:47:12 30,1 C 28,0%
28.05.2020 13:40:09 30,2 C 28,0%
28.05.2020 13:33:09 30,4 C 28,0%
28.05.2020 13:26:05 30,8 C 28,0%
28.05.2020 13:19:05 31,1 C 28,0%
28.05.2020 13:12:03 30,6 C 29,0%
28.05.2020 13:05:02 30,3 C 29,0%
28.05.2020 12:58:06 30,7 C 28,0%
28.05.2020 12:50:56 30,5 C 28,0%
28.05.2020 12:43:54 30,3 C 29,0%
28.05.2020 12:36:51 30,3 C 29,0%
28.05.2020 12:29:49 31,5 C 28,0%
28.05.2020 12:22:46 31,7 C 28,0%
28.05.2020 12:15:43 31,2 C 29,0%
28.05.2020 12:08:41 30,8 C 29,0%
28.05.2020 12:01:41 31,3 C 29,0%
28.05.2020 11:54:39 31,1 C 30,0%
28.05.2020 11:47:36 30,2 C 30,0%
28.05.2020 11:40:33 29,7 C 30,0%
28.05.2020 11:33:33 29,2 C 32,0%
28.05.2020 11:26:30 28,7 C 33,0%
28.05.2020 11:19:27 28,4 C 35,0%
28.05.2020 11:12:24 28,3 C 36,0%
28.05.2020 11:05:23 27,7 C 38,0%
28.05.2020 10:58:20 26,6 C 39,0%
28.05.2020 10:51:19 25,5 C 39,0%
28.05.2020 10:44:16 25,5 C 40,0%
28.05.2020 10:37:15 25,5 C 41,0%
28.05.2020 10:30:14 25,5 C 42,0%
28.05.2020 10:23:13 24,5 C 43,0%
28.05.2020 10:16:10 23,4 C 44,0%
28.05.2020 10:09:09 23,5 C 44,0%
28.05.2020 10:02:08 23,8 C 44,0%
28.05.2020 09:55:07 23,3 C 45,0%
28.05.2020 09:48:07 22,5 C 45,0%
28.05.2020 09:41:04 22,5 C 46,0%
28.05.2020 09:34:02 22,5 C 46,0%
28.05.2020 09:27:01 22,4 C 46,0%
28.05.2020 09:19:57 22,5 C 46,0%
28.05.2020 09:12:57 22,6 C 47,0%
28.05.2020 09:05:53 22,4 C 47,0%
28.05.2020 08:58:52 21,5 C 48,0%
28.05.2020 08:51:50 20,8 C 49,0%
28.05.2020 08:44:49 20,5 C 50,0%
28.05.2020 08:37:47 20,3 C 50,0%
28.05.2020 08:30:45 20,4 C 50,0%
28.05.2020 08:23:43 20,5 C 50,0%
28.05.2020 08:16:41 20,7 C 50,0%
28.05.2020 08:09:39 20,8 C 50,0%
28.05.2020 08:02:38 20,6 C 51,0%
28.05.2020 07:55:36 20,5 C 51,0%
28.05.2020 07:48:35 20,5 C 51,0%
28.05.2020 07:41:33 20,5 C 51,0%
28.05.2020 07:34:32 20,5 C 52,0%
28.05.2020 07:27:30 20,6 C 52,0%
28.05.2020 07:20:27 20,5 C 52,0%
28.05.2020 07:13:24 20,5 C 52,0%
28.05.2020 07:06:21 20,5 C 52,0%
28.05.2020 06:59:19 20,5 C 52,0%
28.05.2020 06:52:16 20,0 C 53,0%
28.05.2020 06:45:12 19,8 C 53,0%
28.05.2020 06:38:10 19,8 C 53,0%
28.05.2020 06:31:10 19,8 C 53,0%
28.05.2020 06:24:08 19,8 C 53,0%
28.05.2020 06:17:05 19,8 C 52,0%
28.05.2020 06:10:02 19,9 C 52,0%
28.05.2020 06:03:00 19,9 C 52,0%
28.05.2020 05:55:58 19,9 C 52,0%
28.05.2020 05:48:56 20,0 C 52,0%
28.05.2020 05:41:54 20,0 C 52,0%
28.05.2020 05:34:53 20,0 C 52,0%
28.05.2020 05:27:52 20,1 C 52,0%
28.05.2020 05:20:49 20,2 C 52,0%
28.05.2020 05:13:48 20,2 C 52,0%
28.05.2020 05:06:45 20,3 C 52,0%
28.05.2020 04:59:41 20,3 C 52,0%
28.05.2020 04:52:40 20,4 C 52,0%
28.05.2020 04:45:37 20,5 C 52,0%
28.05.2020 04:38:36 20,5 C 52,0%
28.05.2020 04:31:36 20,5 C 51,0%
28.05.2020 04:24:33 20,6 C 51,0%
28.05.2020 04:17:30 20,7 C 50,0%
28.05.2020 04:10:28 20,8 C 50,0%
28.05.2020 04:03:26 20,8 C 50,0%
28.05.2020 03:56:25 20,9 C 49,0%
28.05.2020 03:49:23 21,0 C 48,0%
28.05.2020 03:42:20 21,0 C 48,0%
28.05.2020 03:35:19 21,1 C 47,0%
28.05.2020 03:28:16 21,1 C 47,0%
28.05.2020 03:21:15 21,2 C 46,0%
28.05.2020 03:14:13 21,3 C 46,0%
28.05.2020 03:07:10 21,4 C 45,0%
28.05.2020 03:00:09 21,4 C 45,0%
28.05.2020 02:53:08 21,5 C 45,0%
28.05.2020 02:46:06 21,6 C 45,0%
28.05.2020 02:39:04 21,6 C 44,0%
28.05.2020 02:32:04 21,7 C 44,0%
28.05.2020 02:25:01 21,7 C 44,0%
28.05.2020 02:18:00 21,8 C 44,0%
28.05.2020 02:10:59 21,9 C 44,0%
28.05.2020 02:03:56 21,9 C 44,0%
28.05.2020 01:56:55 22,0 C 43,0%
28.05.2020 01:49:54 22,0 C 43,0%
28.05.2020 01:42:53 22,1 C 43,0%
28.05.2020 01:35:50 22,2 C 43,0%
28.05.2020 01:28:48 22,2 C 43,0%
28.05.2020 01:21:46 22,3 C 43,0%
28.05.2020 01:14:44 22,3 C 43,0%
28.05.2020 01:07:42 22,4 C 43,0%
28.05.2020 01:00:38 22,5 C 43,0%
28.05.2020 00:53:35 22,5 C 43,0%
28.05.2020 00:46:32 22,6 C 43,0%
28.05.2020 00:39:28 22,7 C 43,0%
28.05.2020 00:32:26 22,8 C 43,0%
28.05.2020 00:25:23 22,8 C 43,0%
28.05.2020 00:18:21 22,9 C 43,0%
28.05.2020 00:11:19 23,0 C 42,0%
28.05.2020 00:04:16 23,1 C 42,0%